Tracking 20083 objects as of 10-Dec-2019
HD Live streaming from Space Station
objects crossing your sky now

PSLV DEB


PSLV DEB is no longer on orbit


NORAD ID: 27317
Int'l Code: 2001-049KP
Perigee: N/A
Apogee: N/A
Inclination: N/A
Period: N/A
Semi major axis: N/A
RCS: N/A
Launch date: October 22, 2001
Source: India (IND)
Launch site: SRIHARIKOTA (SRI)
Decay date: 2015-04-20

Note: This is SATELLITE DEBRIS
aabbcc
Your satellite tracking list
Your tracking list is empty




NASA's NSSDC Master Catalog

Two Line Element Set (TLE):
1 27317U 01049KP  15109.21001426  .06808760  26431-5  23452-2 0  9990
2 27317 097.6809 099.8363 0012605 198.1325 161.9518 16.25215568726212
Source of the keplerian elements: AFSPC